Overview Statistics Trail Chart Weather Telemetry Raw packets
 

This is the latest recevied weather packets stored in our database for station/object XE2RCS-1. If no packets are shown the sender has not sent any weather packets the latest 10 day(s).

<< 28 29 30 31 32 33 34 >>
Time Temp. Humidity Pressure Rain* Wind** Luminosity Snow
1788251059 21.11° C 67% 1019 hPa 0 mm - - -
1788250458 21.11° C 68% 1017 hPa 0 mm - - -
1788249864 21.11° C 68% 1017 hPa 0 mm - - -
1788249257 21.67° C 67% 1017 hPa 0 mm - - -
1788248656 21.67° C 66% 1018 hPa 0 mm - - -
1788248055 21.67° C 64% 1018 hPa 0 mm - - -
1788247455 21.67° C 65% 1020 hPa 0 mm - - -
1788246854 21.67° C 66% 1020 hPa 0 mm - - -
1788246253 21.67° C 65% 1017 hPa 0 mm - - -
1788245653 21.67° C 66% 1017 hPa 0 mm - - -
1788245052 21.67° C 66% 1017 hPa 0 mm - - -
1788244452 21.67° C 69% 1017 hPa 0 mm - - -
1788243851 21.67° C 67% 1019 hPa 0 mm - - -
1788243250 21.67° C 67% 1019 hPa 0 mm - - -
1788242650 22.22° C 65% 1017 hPa 0 mm - - -
1788242049 22.22° C 67% 1017 hPa 0 mm - - -
1788241448 22.22° C 66% 1017 hPa 0 mm - - -
1788240848 22.22° C 62% 1017 hPa 0 mm - - -
1788240247 22.22° C 61% 1020 hPa 0 mm - - -
1788239646 22.78° C 63% 1019 hPa 0 mm - - -
1788239046 22.78° C 61% 1019 hPa 0 mm - - -
1788238445 22.78° C 61% 1017 hPa 0 mm - - -
1788237844 22.78° C 61% 1017 hPa 0 mm - - -
1788237244 22.78° C 60% 1017 hPa 0 mm - - -
1788236643 22.78° C 59% 1019 hPa 0 mm - - -

* Rain latest hour (hover to see other rain measurements)
** Current wind speed in m/s (hover to see current wind gust speed)